Flag for U.S.A. Weather past 2 weeks in Colorado Springs, Colorado, U.S.A.

Now
46 °F

Passing clouds.


Feels Like: 42 °F
Forecast: 39 / 58 °F
Wind: 7 mph from North

Location: City Of Colorado Springs Municipal Airport

Current Time: May 25, 2015 at 2:25:09 AM

Latest Report: May 25, 2015 at 1:54 AM


Visibility: 10 mi

Pressure: 29.80 "Hg

Humidity: 79%

Dew point: 40 °F

Location of Colorado SpringsLocation

Historic Weather in Colorado Springs — Graph

°F

Colorado Springs temperature yesterday

Maximum temperature yesterday: 58 °F (at 11:54 AM)
Minimum temperature yesterday: 42 °F (at 5:54 AM)
Average temperature yesterday: 49 °F

Past Weeks' High & Low Weather Summary

 TemperatureHumidityPressure
High69 °F (May 14, 2:54 PM)100% (May 10, 11:01 PM)30.32 "Hg (May 10, 11:01 PM)
Low29 °F (May 10, 2:54 AM)24% (May 14, 2:54 PM)29.54 "Hg (May 16, 1:54 AM)
Average48 °F73%29.97 "Hg
* Reported May 10 12:54 AM — May 25 12:54 AM, Colorado Springs, Weather by CustomWeather, © 2015

Note: Actual official high and low records may vary slightly from our data, if they occured in-between our weather recording intervals... More about our weather records

Advertising

Colorado Springs weather history for previous 24 hours

 ConditionsComfort  
Time TempWeatherWind HumidityBarometerVisibility
12:54 AM
Mon, May 25
48 °FPartly cloudy.10 mph74%29.81 "Hg10 mi
11:54 PM
Sun, May 24
47 °FPassing clouds.6 mph77%29.79 "Hg10 mi
10:54 PM48 °FPassing clouds.8 mph77%29.80 "Hg10 mi
9:54 PM49 °FPartly cloudy.7 mph77%29.80 "Hg10 mi
8:54 PM51 °FLight rain. Partly sunny.8 mph71%29.77 "Hg10 mi
7:54 PM52 °FBroken clouds.5 mph66%29.75 "Hg10 mi
6:54 PM54 °FScattered clouds.7 mph57%29.76 "Hg10 mi
5:54 PM55 °FScattered clouds.9 mph62%29.74 "Hg10 mi
4:54 PM51 °FBroken clouds.6 mph74%29.76 "Hg10 mi
3:54 PM52 °FThunderstorms. Cloudy.5 mph59%29.79 "Hg10 mi
2:54 PM53 °FCloudy.13 mph59%29.80 "Hg10 mi
1:54 PM53 °FBroken clouds.7 mph66%29.78 "Hg10 mi
12:54 PM51 °FThunderstorms. Broken clouds.17 mph63%29.81 "Hg10 mi
11:54 AM58 °FThunderstorms. Broken clouds.No wind47%29.78 "Hg10 mi
10:54 AM53 °FOvercast.8 mph61%29.83 "Hg10 mi
9:54 AM51 °FBroken clouds.3 mph69%29.83 "Hg10 mi
8:54 AM51 °FBroken clouds.No wind71%29.81 "Hg10 mi
7:54 AM49 °FBroken clouds.3 mph77%29.79 "Hg10 mi
6:54 AM43 °FBroken clouds.3 mph89%29.83 "Hg10 mi
5:54 AM42 °FPartly cloudy.No wind89%29.86 "Hg10 mi
4:54 AM43 °FPartly cloudy.5 mph86%29.86 "Hg10 mi
3:54 AM45 °FPartly cloudy.6 mph82%29.86 "Hg10 mi
2:54 AM43 °FPassing clouds.7 mph89%29.86 "Hg10 mi
Weather by CustomWeather, © 2015

See weather overviewHow to use our weather pages